EW2910 Weather Reports


Display with metric or nautical units.
time (UTC)temp
F
wind
direction
speed
MPH
gust
MPH
rain 1hr
in
rain 24hr
in
rain mn
in
humidity
%
barometer
mb
20260508034558 74 241 2.0 10.0 0.00 0.00 0.00 84 1014.3
20260508033058 74 269 3.0 7.0 0.00 0.00 0.00 82 1014.3
20260508031602 75 272 3.0 7.0 0.00 0.00 0.00 81 1014.3
20260508030109 75 295 2.0 7.0 0.00 0.00 0.00 80 1014.2
20260508024617 76 273 1.0 8.0 0.00 0.00 0.00 77 1014.3
20260508023058 76 302 3.0 7.0 0.00 0.00 0.00 74 1014.3
20260508021600 77 275 3.0 6.0 0.00 0.00 0.00 72 1014.3
20260508020106 78 281 3.0 8.0 0.00 0.00 0.00 69 1014.1
20260508014615 78 264 2.0 6.0 0.00 0.00 0.00 66 1013.9
20260508013101 79 0 3.0 5.0 0.00 0.00 0.00 62 1013.9
20260508011615 79 286 1.0 6.0 0.00 0.00 0.00 58 1013.6
20260508004558 81 0 0.0 5.0 0.00 0.00 0.00 51 1013.6
20260508003058 82 0 0.0 4.0 0.00 0.00 0.00 48 1013.5
20260508001603 83 287 1.0 5.0 0.00 0.00 0.00 45 1013.4
20260508000057 84 0 1.0 6.0 0.00 0.00 0.00 42 1013.2
20260507234606 85 308 4.0 7.0 0.00 0.00 0.00 40 1013.2
20260507233058 87 0 1.0 6.0 0.00 0.00 0.00 38 1013.2
20260507231559 89 266 2.0 9.0 0.00 0.00 0.00 36 1013.1
20260507230106 90 262 2.0 7.0 0.00 0.00 0.00 35 1013.1
20260507224601 91 328 2.0 8.0 0.00 0.00 0.00 33 1013.1
20260507223057 92 307 3.0 10.0 0.00 0.00 0.00 32 1012.9
20260507221558 93 319 3.0 11.0 0.00 0.00 0.00 33 1012.8
20260507220056 94 186 1.0 8.0 0.00 0.00 0.00 38 1012.7
20260507214600 94 195 4.0 9.0 0.00 0.00 0.00 36 1012.6
20260507213100 95 214 2.0 8.0 0.00 0.00 0.00 35 1012.7
20260507211602 96 276 0.0 9.0 0.00 0.00 0.00 35 1012.7
20260507210104 95 283 2.0 8.0 0.00 0.00 0.00 32 1012.8
20260507204600 95 202 2.0 9.0 0.00 0.00 0.00 32 1012.9
20260507203100 95 0 5.0 13.0 0.00 0.00 0.00 33 1013.1
20260507201557 95 294 2.0 9.0 0.00 0.00 0.00 35 1013.2
20260507200100 96 203 4.0 9.0 0.00 0.00 0.00 36 1013.4
20260507194559 95 297 3.0 9.0 0.00 0.00 0.00 41 1013.5
20260507193058 94 327 3.0 7.0 0.00 0.00 0.00 40 1013.6
20260507191558 95 165 3.0 8.0 0.00 0.00 0.00 41 1013.7
20260507190057 95 316 1.0 8.0 0.00 0.00 0.00 42 1013.9
20260507184600 94 286 2.0 11.0 0.00 0.00 0.00 43 1014.1
20260507183058 93 212 2.0 10.0 0.00 0.00 0.00 45 1014.5
20260507181556 92 234 7.0 16.0 0.00 0.00 0.00 46 1014.5
20260507174613 93 227 2.0 9.0 0.00 0.00 0.00 46 1015.3
20260507173057 92 238 4.0 10.0 0.00 0.00 0.00 47 1015.3
20260507171611 92 221 5.0 14.0 0.00 0.00 0.00 46 1015.3
20260507170058 92 300 2.0 11.0 0.00 0.00 0.00 46 1015.3
20260507164556 91 219 3.0 10.0 0.00 0.00 0.00 46 1015.3
20260507163100 90 250 3.0 14.0 0.00 0.00 0.00 46 1015.6
20260507161601 89 226 5.0 11.0 0.00 0.00 0.00 44 1015.7
20260507160059 89 188 3.0 10.0 0.00 0.00 0.00 47 1016.0
20260507154602 88 229 4.0 10.0 0.00 0.00 0.00 48 1016.1
20260507153104 87 308 3.0 14.0 0.00 0.00 0.00 48 1016.4
20260507151558 87 44 6.0 11.0 0.00 0.00 0.00 48 1016.5
20260507150100 86 224 4.0 12.0 0.00 0.00 0.00 53 1016.4
20260507144559 86 226 3.0 10.0 0.00 0.00 0.00 53 1016.5
20260507143058 84 233 4.0 10.0 0.00 0.00 0.00 56 1016.4
20260507141601 83 201 5.0 10.0 0.00 0.00 0.00 59 1016.4
20260507140108 82 248 3.0 10.0 0.00 0.00 0.00 65 1016.4
20260507134600 81 187 6.0 9.0 0.00 0.00 0.00 69 1016.5
20260507133116 80 248 4.0 9.0 0.00 0.00 0.00 71 1016.5
20260507131605 79 202 5.0 10.0 0.00 0.00 0.00 74 1016.3
20260507130113 78 0 1.0 4.0 0.00 0.00 0.00 78 1016.1
20260507124636 76 0 1.0 6.0 0.00 0.00 0.00 81 1016.0
20260507123110 75 115 2.0 5.0 0.00 0.00 0.00 83 1016.2
20260507121605 74 109 1.0 5.0 0.00 0.00 0.00 85 1016.3
20260507120100 73 0 0.0 3.0 0.00 0.00 0.00 86 1016.2
20260507114614 71 108 0.0 0.0 0.00 0.00 0.00 88 1016.0
20260507113058 70 0 0.0 0.0 0.00 0.00 0.00 90 1016.0
20260507111601 69 0 0.0 0.0 0.00 0.00 0.00 91 1015.8
20260507110110 68 0 0.0 0.0 0.00 0.00 0.00 91 1015.5
20260507104600 68 0 0.0 0.0 0.00 0.00 0.00 90 1015.4
20260507103058 68 0 0.0 0.0 0.00 0.00 0.00 89 1015.6
20260507101603 68 0 0.0 0.0 0.00 0.00 0.00 90 1015.4
20260507100100 69 0 0.0 0.0 0.00 0.00 0.00 89 1015.3
20260507094558 69 0 0.0 0.0 0.00 0.00 0.00 88 1015.1
20260507093058 70 0 0.0 0.0 0.00 0.00 0.00 87 1014.9
20260507091601 71 0 1.0 3.0 0.00 0.00 0.00 88 1014.7
20260507090106 71 203 1.0 4.0 0.00 0.00 0.00 88 1014.9
20260507084600 70 214 0.0 1.0 0.00 0.00 0.00 88 1014.8
20260507083057 69 0 0.0 0.0 0.00 0.00 0.00 87 1015.0
20260507081600 69 0 0.0 0.0 0.00 0.00 0.00 86 1014.9
20260507074612 69 0 0.0 0.0 0.00 0.00 0.00 86 1014.5
20260507073102 69 0 0.0 0.0 0.00 0.00 0.00 85 1014.6
20260507071600 69 0 0.0 0.0 0.00 0.00 0.00 85 1014.7
20260507070115 69 0 0.0 0.0 0.00 0.00 0.00 84 1015.0
20260507064610 70 0 0.0 0.0 0.00 0.00 0.00 82 1015.2
20260507063102 71 0 0.0 0.0 0.00 0.00 0.00 81 1015.2
20260507061558 71 0 0.0 0.0 0.00 0.00 0.00 81 1015.3
20260507060057 71 0 0.0 0.0 0.00 0.00 0.00 81 1015.5
20260507054558 71 0 0.0 0.0 0.00 0.00 0.00 79 1015.7
20260507053057 72 0 0.0 0.0 0.00 0.00 0.00 78 1015.6
20260507051602 72 0 0.0 0.0 0.00 0.00 0.00 77 1015.8
20260507044600 74 0 0.0 0.0 0.00 0.00 0.00 75 1016.3
20260507043057 74 0 0.0 0.0 0.00 0.00 0.00 74 1016.5
20260507041558 75 0 0.0 3.0 0.00 0.00 0.00 72 1016.5
20260507040111 75 0 0.0 2.0 0.00 0.00 0.00 72 1016.4